Wind_Speed
11 10 7 5 3 2 3 3 4 3 2 2 3 3 3 2 1 2 1 2 2 2 2 2 3 6 5 5 6 6 9 11
10 9 8 6 6 4 2 4 4 4 3 3 2 1 1 2 2 2 2 1 1 2 2 1 2 4 6 7 8 7 8 9
12 10 8 5 5 4 4 3 2 2 3 2 1 1 2 2 2 2 2 2 2 2 2 4 5 6 7 10 11 10 9 9
13 10 9 9 7 8 6 7 5 4 2 4 3 2 0 1 2 1 2 3 4 5 5 6 7 8 9 8 10 13 13 13
12 10 10 10 11 12 11 10 8 7 6 6 7 7 6 6 7 7 6 6 7 7 7 5 6 8 10 13 13 14 16 17
14 11 10 8 7 12 13 11 11 10 8 8 9 9 10 10 10 9 8 6 5 4 5 6 6 7 10 11 10 12 12 13
14 11 11 8 7 10 13 12 13 12 11 10 11 11 11 9 9 9 9 8 6 5 6 7 7 7 7 10 10 9 10 11
17 12 9 10 10 9 10 11 12 13 12 11 11 11 13 12 11 10 9 7 7 7 6 5 4 5 5 5 6 7 8 10
18 14 10 10 11 11 11 11 13 13 13 13 12 12 13 13 13 12 11 8 8 7 6 5 4 3 4 5 5 5 8 10
18 14 11 11 10 9 10 11 13 14 14 14 14 14 14 15 14 14 13 11 11 9 6 5 5 5 6 6 7 8 8 10
18 15 13 12 11 11 12 13 14 15 17 18 17 16 15 16 17 16 14 14 14 12 9 8 7 7 8 8 10 11 12 14
16 14 14 14 13 13 14 15 17 17 19 22 21 20 20 19 19 19 19 18 17 16 15 12 10 9 9 11 12 11 15 7
17 16 15 17 17 16 16 20 20 22 22 23 24 25 25 24 24 23 24 24 23 21 19 16 15 12 9 9 14 15 6 13
16 17 17 17 19 17 15 18 20 24 26 27 29 30 30 32 31 31 30 30 27 26 25 21 17 14 6 2 3 3 9 7
17 17 17 17 19 19 19 21 23 28 30 32 34 34 35 37 39 38 36 35 35 33 30 26 21 16 12 6 1 4 4 8
13 15 17 18 18 21 23 26 27 33 35 37 38 38 37 41 44 45 43 38 35 33 29 25 18 13 7 7 3 2 1 4
9 12 13 13 13 16 20 24 29 34 36 38 41 42 38 39 41 46 44 35 28 23 18 16 12 9 2 1 6 5 8 6
8 7 6 8 14 21 26 29 32 34 36 36 38 35 32 32 36 36 31 21 18 14 10 8 4 3 2 8 11 6 6 5
6 9 14 21 27 31 33 34 35 34 31 30 31 31 26 20 18 19 22 21 14 5 5 7 9 8 8 12 13 13 19 17
13 18 25 30 30 31 28 28 30 29 28 27 25 19 8 16 24 20 13 8 8 15 18 23 22 21 16 17 19 21 19 17
Wind_Direction
134 134 138 135 134 175 204 221 226 220 226 182 180 166 160 150 110 75 49 12 12 1 348 326 281 279 288 290 279 280 289 293
163 168 167 169 186 200 203 234 232 243 238 215 207 173 130 135 131 132 128 118 95 59 64 48 311 313 299 308 310 314 302 298
191 190 195 200 208 205 185 205 210 264 273 246 248 118 80 82 61 92 91 56 50 33 339 308 294 288 299 304 311 317 311 309
197 205 217 221 219 219 211 199 207 225 234 216 229 235 250 15 357 318 256 280 299 306 307 296 299 300 302 307 308 312 318 326
188 202 215 221 225 220 225 219 223 228 225 239 250 249 251 253 261 272 279 273 283 282 279 301 311 297 294 298 300 300 300 306
189 194 189 192 207 212 223 231 233 231 237 241 239 239 246 249 250 260 280 275 280 285 284 283 295 302 307 309 308 317 319 310
191 186 193 204 208 208 218 232 233 233 223 234 245 252 253 256 245 245 255 255 271 281 300 300 305 311 309 315 321 315 318 323
192 187 199 206 203 206 216 222 223 223 228 237 253 258 256 257 252 245 240 253 271 290 297 300 309 328 344 343 337 334 345 340
195 191 199 208 212 216 224 233 236 236 241 251 259 264 251 251 249 246 246 245 257 273 281 284 296 300 322 335 335 324 334 338
194 196 206 215 228 235 237 250 258 254 253 262 265 267 262 257 246 240 241 240 255 252 252 266 288 308 324 328 325 326 334 334
194 202 216 231 232 237 242 253 253 258 256 254 259 262 262 256 253 242 239 247 254 243 240 256 272 289 307 313 322 324 327 324
199 208 223 227 231 237 251 256 258 261 268 264 260 255 252 251 251 242 231 236 239 236 235 242 251 263 281 289 299 308 316 330
202 213 223 222 228 234 245 253 261 262 263 264 262 266 259 250 247 243 232 230 233 233 232 234 238 246 257 276 281 286 252 314
213 227 229 236 242 255 259 277 280 271 268 261 254 259 259 253 249 242 237 232 228 225 224 224 228 224 221 234 297 300 259 261
226 238 246 253 256 258 267 268 269 273 271 263 265 257 251 247 247 245 239 231 228 225 223 220 218 216 209 199 188 233 322 281
249 266 269 273 273 272 273 273 273 279 285 288 286 277 261 248 246 245 242 233 228 227 216 219 218 195 192 195 252 267 210 316
272 284 297 309 315 307 294 287 287 289 290 288 285 283 276 262 254 249 241 236 230 227 200 174 166 152 157 293 307 284 260 220
356 357 358 337 331 332 326 316 311 308 305 301 302 301 293 271 253 244 237 218 177 156 146 135 140 114 348 308 303 295 287 273
25 359 341 339 334 326 321 317 314 309 306 303 302 301 293 270 232 187 157 147 133 110 43 342 333 333 304 295 290 286 284 279
352 345 341 335 328 325 321 317 314 309 304 300 300 292 222 147 140 120 91 60 14 341 327 314 307 299 312 284 272 278 285 284
Height
817 819 820 820 820 820 819 819 819 819 818 818 819 820 820 820 819 818 818 818 818 818 817 816 815 815 814 815 816 816 817 816
818 820 820 820 820 821 822 821 821 820 820 819 819 820 819 819 820 820 820 819 819 818 818 817 817 815 816 815 815 815 817 818
818 820 821 821 823 824 824 824 824 823 821 821 822 822 821 821 821 821 821 820 819 819 818 817 817 817 816 814 814 814 817 817
819 820 821 822 823 824 825 825 825 824 822 821 821 822 821 821 822 822 822 821 820 819 819 818 817 815 815 816 815 814 814 813
818 819 820 820 822 822 824 824 824 823 822 821 821 821 821 820 820 820 819 819 819 818 818 817 816 816 815 813 813 813 813 811
816 817 818 818 819 821 822 822 822 821 820 820 819 819 819 819 819 819 819 819 818 817 816 816 816 815 814 813 813 814 813 813
815 816 817 817 818 819 820 821 821 821 820 820 819 819 818 818 818 818 817 817 817 817 817 816 815 815 815 815 815 814 813 812
813 814 815 815 816 817 817 818 819 819 819 819 818 818 818 818 817 817 817 817 817 816 816 815 815 815 815 815 815 814 813 812
811 812 814 815 815 816 816 817 817 817 817 817 816 816 815 815 815 815 815 815 815 815 815 815 814 813 813 813 813 813 812 811
809 811 812 813 814 814 815 815 814 814 814 814 814 813 812 812 812 812 812 812 812 813 813 813 812 812 811 810 810 809 809 809
809 810 811 811 811 812 812 812 811 811 810 810 810 809 809 809 808 809 809 809 809 809 809 809 809 808 808 807 806 805 805 804
808 810 810 810 810 809 809 809 809 809 808 807 806 806 805 805 804 804 804 805 805 805 805 805 805 805 804 803 802 801 801 801
807 808 808 808 808 806 805 804 804 804 804 803 802 802 801 801 800 800 799 799 799 800 801 801 801 801 801 800 799 797 797 798
807 807 806 805 805 804 803 802 801 800 799 798 797 796 795 794 793 793 793 793 793 793 793 794 796 797 797 799 799 795 793 793
804 803 803 802 802 802 800 799 797 795 793 791 789 787 787 786 785 785 785 785 785 785 786 788 790 792 792 794 798 796 791 789
801 801 801 801 801 799 797 796 794 791 789 785 782 781 779 778 778 777 777 778 779 780 781 784 785 786 789 789 791 791 793 792
799 799 800 801 800 798 795 791 788 784 782 778 776 774 773 772 770 769 771 774 777 779 780 780 781 783 786 788 789 788 788 789
801 801 800 798 796 794 792 789 783 777 773 771 767 765 763 763 763 763 765 769 772 777 779 778 780 780 781 785 787 787 785 785
802 801 799 796 793 790 787 784 779 775 770 767 764 761 758 756 758 761 762 766 769 773 773 778 780 775 778 780 781 783 784 783
803 801 798 794 791 787 784 780 776 771 768 765 761 759 758 757 758 762 766 769 770 770 770 772 773 770 773 773 774 776 776 775